| time (UTC) | temp F | wind direction | speed knots | gust knots | rain 1hr in | rain 24hr in | rain mn in | humidity % | barometer mb |
| 20260831172646 | 82 | 73 | 7.0 | 9.6 | 0.33 | 0.00 | 0.48 | 87 | 1016.3 |
| 20260831172147 | 85 | 55 | 7.0 | 13.0 | 0.19 | 0.00 | 0.45 | 82 | 1016.6 |
| 20260831171647 | 87 | 34 | 4.3 | 14.8 | 0.00 | 0.00 | 0.42 | 77 | 1016.6 |
| 20260831171146 | 87 | 67 | 6.1 | 7.8 | 0.00 | 0.00 | 0.42 | 75 | 1016.6 |
| 20260831170646 | 87 | 53 | 7.0 | 9.6 | 0.00 | 0.00 | 0.42 | 74 | 1016.6 |
| 20260831170147 | 87 | 48 | 7.8 | 11.3 | 0.00 | 0.00 | 0.42 | 75 | 1016.6 |
| 20260831165648 | 87 | 50 | 4.3 | 8.7 | 0.00 | 0.00 | 0.42 | 76 | 1016.6 |
| 20260831165146 | 86 | 10 | 4.3 | 4.3 | 0.00 | 0.00 | 0.42 | 78 | 1016.6 |
| 20260831164650 | 86 | 24 | 7.0 | 8.7 | 0.00 | 0.00 | 0.42 | 78 | 1016.6 |
| 20260831164146 | 87 | 26 | 2.6 | 7.0 | 0.00 | 0.00 | 0.42 | 77 | 1016.6 |
| 20260831163648 | 87 | 54 | 3.5 | 5.2 | 0.00 | 0.00 | 0.42 | 77 | 1016.6 |
| 20260831163146 | 87 | 35 | 5.2 | 9.6 | 0.00 | 0.00 | 0.42 | 78 | 1016.6 |
| 20260831162647 | 87 | 51 | 7.0 | 7.8 | 0.00 | 0.00 | 0.42 | 78 | 1016.9 |
| 20260831162146 | 87 | 80 | 2.6 | 11.3 | 0.00 | 0.00 | 0.42 | 76 | 1016.9 |
| 20260831161649 | 87 | 35 | 5.2 | 10.4 | 0.00 | 0.00 | 0.42 | 76 | 1016.9 |
| 20260831161148 | 87 | 85 | 4.3 | 9.6 | 0.00 | 0.00 | 0.42 | 72 | 1016.9 |
| 20260831160647 | 87 | 123 | 6.1 | 10.4 | 0.00 | 0.00 | 0.42 | 72 | 1016.9 |
| 20260831160146 | 87 | 51 | 7.0 | 9.6 | 0.00 | 0.00 | 0.42 | 72 | 1016.9 |
| 20260831155647 | 87 | 95 | 2.6 | 6.1 | 0.00 | 0.00 | 0.42 | 73 | 1016.9 |
| 20260831155147 | 86 | 63 | 5.2 | 9.6 | 0.00 | 0.00 | 0.42 | 73 | 1016.9 |
| 20260831154647 | 86 | 123 | 4.3 | 10.4 | 0.00 | 0.00 | 0.42 | 75 | 1016.9 |
| 20260831154146 | 86 | 58 | 9.6 | 9.6 | 0.00 | 0.00 | 0.42 | 75 | 1016.9 |
| 20260831153647 | 85 | 35 | 6.1 | 15.6 | 0.00 | 0.00 | 0.42 | 81 | 1016.6 |
| 20260831153148 | 83 | 58 | 5.2 | 5.2 | 0.00 | 0.00 | 0.42 | 87 | 1016.3 |
| 20260831152651 | 81 | 63 | 2.6 | 4.3 | 0.00 | 0.00 | 0.42 | 89 | 1016.3 |
| 20260831152147 | 81 | 51 | 2.6 | 2.6 | 0.00 | 0.00 | 0.42 | 90 | 1016.3 |
| 20260831151646 | 80 | 325 | 1.7 | 3.5 | 0.00 | 0.00 | 0.42 | 90 | 1016.6 |
| 20260831151148 | 80 | 44 | 0.0 | 4.3 | 0.00 | 0.00 | 0.42 | 89 | 1016.6 |
| 20260831150646 | 80 | 16 | 1.7 | 6.1 | 0.00 | 0.00 | 0.42 | 89 | 1016.6 |
| 20260831150148 | 80 | 19 | 1.7 | 4.3 | 0.00 | 0.00 | 0.42 | 90 | 1016.6 |
| 20260831145648 | 79 | 13 | 0.9 | 5.2 | 0.05 | 0.00 | 0.42 | 93 | 1016.3 |
| 20260831145147 | 79 | 32 | 2.6 | 7.8 | 1.16 | 0.00 | 0.42 | 93 | 1016.6 |
| 20260831144648 | 80 | 45 | 7.8 | 9.6 | 1.18 | 0.00 | 0.40 | 91 | 1016.6 |
| 20260831144147 | 85 | 146 | 6.1 | 19.1 | 0.38 | 0.00 | 0.27 | 81 | 1016.6 |
| 20260831143646 | 86 | 59 | 4.3 | 6.1 | 0.00 | 0.00 | 0.20 | 76 | 1015.9 |
| 20260831143146 | 86 | 174 | 2.6 | 8.7 | 0.00 | 0.00 | 0.20 | 76 | 1016.3 |
| 20260831142647 | 87 | 72 | 7.0 | 8.7 | 0.00 | 0.00 | 0.20 | 76 | 1015.9 |
| 20260831142147 | 87 | 39 | 3.5 | 7.0 | 0.00 | 0.00 | 0.20 | 76 | 1015.9 |
| 20260831141646 | 87 | 66 | 7.8 | 9.6 | 0.00 | 0.00 | 0.20 | 77 | 1015.9 |
| 20260831141147 | 87 | 64 | 7.0 | 9.6 | 0.00 | 0.00 | 0.20 | 77 | 1015.9 |
| 20260831140647 | 86 | 9 | 2.6 | 6.1 | 0.00 | 0.00 | 0.20 | 79 | 1015.9 |
| 20260831140147 | 86 | 113 | 4.3 | 11.3 | 0.00 | 0.00 | 0.20 | 79 | 1016.3 |
| 20260831135646 | 86 | 62 | 5.2 | 6.1 | 0.00 | 0.00 | 0.20 | 80 | 1015.9 |
| 20260831135146 | 85 | 61 | 6.1 | 9.6 | 0.00 | 0.00 | 0.20 | 81 | 1015.9 |
| 20260831134647 | 85 | 67 | 6.1 | 7.0 | 0.00 | 0.00 | 0.20 | 81 | 1015.9 |
| 20260831134146 | 85 | 68 | 5.2 | 6.1 | 0.00 | 0.00 | 0.20 | 82 | 1015.9 |
| 20260831133646 | 85 | 69 | 7.0 | 7.8 | 0.00 | 0.00 | 0.20 | 83 | 1015.9 |
| 20260831133147 | 84 | 38 | 2.6 | 6.1 | 0.00 | 0.00 | 0.20 | 85 | 1015.9 |
| 20260831132646 | 84 | 65 | 3.5 | 5.2 | 0.00 | 0.00 | 0.20 | 86 | 1015.9 |
| 20260831132147 | 83 | 59 | 2.6 | 5.2 | 0.00 | 0.00 | 0.20 | 87 | 1015.9 |
| 20260831131646 | 83 | 51 | 1.7 | 7.8 | 0.00 | 0.00 | 0.20 | 88 | 1015.6 |
| 20260831131147 | 82 | 77 | 2.6 | 5.2 | 0.00 | 0.00 | 0.20 | 88 | 1015.2 |
| 20260831130647 | 82 | 39 | 2.6 | 5.2 | 0.00 | 0.00 | 0.20 | 88 | 1015.6 |
| 20260831130150 | 81 | 45 | 3.5 | 4.3 | 0.00 | 0.00 | 0.20 | 90 | 1015.6 |
| 20260831125647 | 81 | 14 | 1.7 | 3.5 | 0.00 | 0.00 | 0.20 | 90 | 1015.6 |
| 20260831125148 | 81 | 339 | 1.7 | 4.3 | 0.00 | 0.00 | 0.20 | 89 | 1015.6 |
| 20260831124646 | 81 | 68 | 2.6 | 3.5 | 0.00 | 0.00 | 0.20 | 89 | 1015.6 |
| 20260831124147 | 80 | 31 | 2.6 | 3.5 | 0.00 | 0.00 | 0.20 | 92 | 1015.2 |
| 20260831123647 | 80 | 341 | 0.0 | 2.6 | 0.02 | 0.00 | 0.20 | 92 | 1015.6 |
| 20260831123149 | 80 | 67 | 2.6 | 3.5 | 0.02 | 0.00 | 0.20 | 93 | 1015.2 |
| 20260831122647 | 80 | 117 | 0.9 | 2.6 | 0.00 | 0.00 | 0.20 | 93 | 1015.2 |
| 20260831122149 | 79 | 107 | 1.7 | 2.6 | 0.00 | 0.00 | 0.20 | 93 | 1015.2 |
| 20260831121647 | 79 | 80 | 1.7 | 3.5 | 0.00 | 0.00 | 0.20 | 93 | 1015.2 |
| 20260831121149 | 79 | 73 | 2.6 | 4.3 | 0.00 | 0.00 | 0.20 | 93 | 1015.2 |
| 20260831120648 | 79 | 31 | 1.7 | 2.6 | 0.00 | 0.00 | 0.20 | 92 | 1015.2 |
| 20260831120148 | 79 | 34 | 0.0 | 3.5 | 0.00 | 0.00 | 0.20 | 92 | 1014.9 |
| 20260831115646 | 79 | 65 | 0.9 | 4.3 | 0.00 | 0.00 | 0.20 | 93 | 1014.9 |
| 20260831115149 | 78 | 104 | 1.7 | 4.3 | 0.00 | 0.00 | 0.20 | 93 | 1014.6 |
| 20260831114647 | 78 | 319 | 1.7 | 5.2 | 0.00 | 0.00 | 0.20 | 93 | 1014.6 |
| 20260831114150 | 78 | 27 | 2.6 | 4.3 | 0.00 | 0.00 | 0.20 | 93 | 1014.9 |
| 20260831113646 | 78 | 47 | 4.3 | 7.0 | 0.00 | 0.00 | 0.20 | 94 | 1014.6 |
| 20260831113146 | 77 | 58 | 3.5 | 4.3 | 0.00 | 0.00 | 0.20 | 96 | 1014.6 |
| 20260831112647 | 77 | 266 | 0.0 | 4.3 | 0.00 | 0.00 | 0.20 | 97 | 1014.6 |
| 20260831112146 | 77 | 4 | 1.7 | 2.6 | 0.00 | 0.00 | 0.20 | 97 | 1014.6 |
| 20260831111647 | 77 | 130 | 0.0 | 2.6 | 0.14 | 0.00 | 0.20 | 97 | 1014.6 |
| 20260831111146 | 77 | 89 | 0.0 | 2.6 | 0.35 | 0.00 | 0.20 | 96 | 1014.6 |
| 20260831110647 | 77 | 65 | 1.7 | 6.1 | 0.85 | 0.00 | 0.18 | 96 | 1014.9 |
| 20260831110147 | 77 | 45 | 1.7 | 7.0 | 0.64 | 0.00 | 0.12 | 95 | 1015.2 |
| 20260831105646 | 78 | 290 | 1.7 | 8.7 | 0.19 | 0.00 | 0.04 | 93 | 1015.2 |
| 20260831105149 | 79 | 144 | 7.0 | 11.3 | 0.09 | 0.00 | 0.02 | 90 | 1014.9 |
| 20260831104646 | 82 | 136 | 6.1 | 8.7 | 0.00 | 0.00 | 0.00 | 88 | 1014.6 |
| 20260831104146 | 82 | 185 | 0.0 | 2.6 | 0.00 | 0.00 | 0.00 | 87 | 1014.6 |
| 20260831103647 | 82 | 62 | 2.6 | 3.5 | 0.00 | 0.00 | 0.00 | 86 | 1014.6 |
| 20260831103146 | 82 | 57 | 1.7 | 2.6 | 0.00 | 0.00 | 0.00 | 86 | 1014.6 |
| 20260831102646 | 82 | 15 | 0.0 | 2.6 | 0.00 | 0.00 | 0.00 | 86 | 1014.6 |
| 20260831102146 | 82 | 52 | 2.6 | 3.5 | 0.00 | 0.00 | 0.00 | 86 | 1014.6 |
| 20260831101648 | 82 | 84 | 0.0 | 2.6 | 0.00 | 0.00 | 0.00 | 86 | 1014.2 |
| 20260831101147 | 82 | 37 | 0.9 | 1.7 | 0.00 | 0.00 | 0.00 | 85 | 1014.6 |
| 20260831100646 | 82 | 51 | 1.7 | 2.6 | 0.00 | 0.00 | 0.00 | 85 | 1014.6 |
| 20260831100148 | 82 | 52 | 2.6 | 2.6 | 0.00 | 0.00 | 0.00 | 86 | 1014.6 |
| 20260831095646 | 83 | 74 | 2.6 | 2.6 | 0.00 | 0.00 | 0.00 | 85 | 1014.6 |
| 20260831095146 | 83 | 17 | 2.6 | 3.5 | 0.00 | 0.00 | 0.00 | 85 | 1014.2 |
| 20260831094648 | 83 | 22 | 0.0 | 3.5 | 0.00 | 0.00 | 0.00 | 85 | 1014.2 |
| 20260831094147 | 83 | 84 | 1.7 | 3.5 | 0.00 | 0.00 | 0.00 | 85 | 1014.2 |
| 20260831093646 | 83 | 53 | 1.7 | 3.5 | 0.00 | 0.00 | 0.00 | 85 | 1014.2 |
| 20260831093147 | 83 | 55 | 2.6 | 5.2 | 0.00 | 0.00 | 0.00 | 85 | 1014.2 |
| 20260831092648 | 83 | 66 | 3.5 | 5.2 | 0.00 | 0.00 | 0.00 | 85 | 1013.9 |
| 20260831092146 | 83 | 61 | 3.5 | 4.3 | 0.00 | 0.00 | 0.00 | 84 | 1014.2 |
| 20260831091648 | 83 | 58 | 2.6 | 3.5 | 0.00 | 0.00 | 0.00 | 84 | 1014.2 |
| 20260831091146 | 83 | 80 | 1.7 | 5.2 | 0.00 | 0.00 | 0.00 | 84 | 1014.2 |
| 20260831090646 | 83 | 68 | 2.6 | 4.3 | 0.00 | 0.00 | 0.00 | 85 | 1014.2 |
| 20260831090147 | 83 | 71 | 1.7 | 6.1 | 0.00 | 0.00 | 0.00 | 85 | 1014.2 |
| 20260831085646 | 83 | 58 | 2.6 | 5.2 | 0.00 | 0.00 | 0.00 | 85 | 1013.9 |
| 20260831085146 | 83 | 65 | 3.5 | 5.2 | 0.00 | 0.00 | 0.00 | 85 | 1013.9 |
| 20260831084646 | 82 | 70 | 4.3 | 6.1 | 0.00 | 0.00 | 0.00 | 85 | 1014.2 |
| 20260831084147 | 82 | 74 | 3.5 | 5.2 | 0.00 | 0.00 | 0.00 | 85 | 1014.2 |
| 20260831083647 | 82 | 56 | 2.6 | 4.3 | 0.00 | 0.00 | 0.00 | 85 | 1014.2 |
| 20260831083146 | 82 | 61 | 5.2 | 5.2 | 0.00 | 0.00 | 0.00 | 85 | 1014.2 |
| 20260831082646 | 83 | 106 | 2.6 | 5.2 | 0.00 | 0.00 | 0.00 | 85 | 1014.2 |
| 20260831082146 | 83 | 66 | 1.7 | 3.5 | 0.00 | 0.00 | 0.00 | 84 | 1014.2 |
| 20260831081647 | 83 | 51 | 1.7 | 3.5 | 0.00 | 0.00 | 0.00 | 84 | 1014.2 |
| 20260831081146 | 83 | 70 | 1.7 | 4.3 | 0.00 | 0.00 | 0.00 | 84 | 1014.2 |
| 20260831080646 | 83 | 60 | 1.7 | 5.2 | 0.00 | 0.00 | 0.00 | 84 | 1014.2 |
| 20260831080146 | 83 | 88 | 1.7 | 3.5 | 0.00 | 0.00 | 0.00 | 84 | 1014.2 |
| 20260831075647 | 83 | 58 | 3.5 | 4.3 | 0.00 | 0.00 | 0.00 | 84 | 1013.9 |
| 20260831075147 | 83 | 69 | 2.6 | 4.3 | 0.00 | 0.00 | 0.00 | 84 | 1014.2 |
| 20260831074646 | 82 | 119 | 1.7 | 4.3 | 0.00 | 0.00 | 0.00 | 84 | 1014.2 |
| 20260831074147 | 82 | 74 | 2.6 | 3.5 | 0.00 | 0.00 | 0.00 | 85 | 1014.2 |
| 20260831073647 | 83 | 32 | 0.0 | 3.5 | 0.00 | 0.00 | 0.00 | 85 | 1014.2 |
| 20260831073146 | 83 | 70 | 2.6 | 5.2 | 0.00 | 0.00 | 0.00 | 85 | 1014.2 |
| 20260831072647 | 83 | 50 | 1.7 | 3.5 | 0.00 | 0.00 | 0.00 | 85 | 1014.2 |
| 20260831072151 | 83 | 58 | 4.3 | 6.1 | 0.00 | 0.00 | 0.00 | 85 | 1014.6 |
| 20260831071646 | 83 | 98 | 0.9 | 5.2 | 0.00 | 0.00 | 0.00 | 85 | 1014.2 |
| 20260831071146 | 83 | 57 | 3.5 | 7.0 | 0.00 | 0.00 | 0.00 | 85 | 1014.2 |
| 20260831070646 | 83 | 85 | 2.6 | 5.2 | 0.00 | 0.00 | 0.00 | 85 | 1014.2 |
| 20260831070147 | 83 | 58 | 6.1 | 8.7 | 0.00 | 0.00 | 0.00 | 85 | 1014.2 |
| 20260831065647 | 83 | 84 | 5.2 | 7.0 | 0.00 | 0.00 | 0.00 | 85 | 1014.2 |
| 20260831065146 | 83 | 88 | 2.6 | 7.0 | 0.00 | 0.00 | 0.00 | 85 | 1014.6 |
| 20260831064647 | 83 | 54 | 2.6 | 6.1 | 0.00 | 0.00 | 0.00 | 85 | 1014.6 |
| 20260831064147 | 83 | 72 | 4.3 | 6.1 | 0.00 | 0.00 | 0.00 | 85 | 1014.6 |
| 20260831063646 | 83 | 92 | 5.2 | 6.1 | 0.00 | 0.00 | 0.00 | 85 | 1014.6 |
| 20260831063146 | 83 | 217 | 1.7 | 4.3 | 0.00 | 0.00 | 0.00 | 84 | 1014.9 |
| 20260831062646 | 83 | 64 | 1.7 | 4.3 | 0.00 | 0.00 | 0.00 | 84 | 1014.9 |
| 20260831062146 | 83 | 77 | 1.7 | 7.0 | 0.00 | 0.00 | 0.00 | 84 | 1014.9 |
| 20260831061646 | 83 | 117 | 2.6 | 7.8 | 0.00 | 0.00 | 0.00 | 85 | 1015.2 |
| 20260831061146 | 83 | 47 | 3.5 | 3.5 | 0.00 | 0.00 | 0.00 | 85 | 1015.2 |
| 20260831060647 | 83 | 75 | 1.7 | 7.0 | 0.00 | 0.00 | 0.00 | 84 | 1015.2 |
| 20260831060148 | 83 | 81 | 2.6 | 7.0 | 0.00 | 0.00 | 0.00 | 84 | 1014.9 |
| 20260831055647 | 83 | 110 | 0.9 | 6.1 | 0.00 | 0.00 | 0.00 | 84 | 1015.2 |
| 20260831055146 | 83 | 143 | 6.1 | 6.1 | 0.00 | 0.00 | 0.00 | 84 | 1014.9 |
| 20260831054646 | 83 | 61 | 4.3 | 6.1 | 0.00 | 0.00 | 0.00 | 84 | 1015.2 |
| 20260831054146 | 83 | 76 | 4.3 | 6.1 | 0.00 | 0.00 | 0.00 | 85 | 1015.2 |
| 20260831053646 | 83 | 120 | 0.9 | 4.3 | 0.00 | 0.00 | 0.00 | 85 | 1015.2 |
| 20260831053146 | 83 | 123 | 1.7 | 5.2 | 0.00 | 0.00 | 0.00 | 85 | 1015.2 |
| 20260831052646 | 83 | 73 | 3.5 | 4.3 | 0.00 | 0.00 | 0.00 | 85 | 1015.2 |
| 20260831052147 | 83 | 67 | 5.2 | 9.6 | 0.00 | 0.00 | 0.00 | 84 | 1015.2 |
| 20260831051646 | 83 | 86 | 5.2 | 7.8 | 0.00 | 0.00 | 0.00 | 85 | 1015.2 |
| 20260831051148 | 83 | 70 | 4.3 | 7.8 | 0.00 | 0.00 | 0.00 | 85 | 1015.2 |
| 20260831050647 | 83 | 52 | 2.6 | 7.8 | 0.00 | 0.00 | 0.00 | 85 | 1015.2 |
| 20260831050147 | 83 | 68 | 4.3 | 6.1 | 0.00 | 0.00 | 0.00 | 85 | 1015.2 |
| 20260831045646 | 83 | 152 | 2.6 | 7.0 | 0.00 | 0.00 | 0.26 | 85 | 1015.2 |
| 20260831045146 | 83 | 57 | 6.1 | 7.0 | 0.00 | 0.00 | 0.26 | 85 | 1015.2 |
| 20260831044646 | 83 | 88 | 4.3 | 7.0 | 0.00 | 0.00 | 0.26 | 85 | 1015.2 |
| 20260831044147 | 83 | 84 | 2.6 | 8.7 | 0.00 | 0.00 | 0.26 | 85 | 1015.6 |
| 20260831043646 | 83 | 99 | 3.5 | 6.1 | 0.00 | 0.00 | 0.26 | 84 | 1015.2 |
| 20260831043146 | 83 | 79 | 2.6 | 7.8 | 0.00 | 0.00 | 0.26 | 84 | 1015.6 |
| 20260831042647 | 83 | 62 | 4.3 | 6.1 | 0.00 | 0.00 | 0.26 | 84 | 1015.6 |
| 20260831042146 | 83 | 82 | 1.7 | 5.2 | 0.00 | 0.00 | 0.26 | 84 | 1015.9 |
| 20260831041647 | 83 | 84 | 5.2 | 7.0 | 0.00 | 0.00 | 0.26 | 83 | 1015.6 |
| 20260831041147 | 83 | 84 | 1.7 | 3.5 | 0.00 | 0.00 | 0.26 | 83 | 1015.6 |
| 20260831040647 | 83 | 50 | 1.7 | 7.8 | 0.00 | 0.00 | 0.26 | 83 | 1015.6 |
| 20260831040154 | 83 | 50 | 7.0 | 8.7 | 0.00 | 0.00 | 0.26 | 83 | 1015.6 |
| 20260831035646 | 83 | 81 | 3.5 | 4.3 | 0.00 | 0.00 | 0.26 | 82 | 1015.6 |
| 20260831035147 | 83 | 39 | 2.6 | 4.3 | 0.00 | 0.00 | 0.26 | 82 | 1015.6 |
| 20260831034647 | 83 | 107 | 1.7 | 4.3 | 0.00 | 0.00 | 0.26 | 82 | 1015.6 |
| 20260831034147 | 83 | 80 | 4.3 | 5.2 | 0.00 | 0.00 | 0.26 | 82 | 1015.9 |
| 20260831033647 | 83 | 79 | 1.7 | 2.6 | 0.00 | 0.00 | 0.26 | 82 | 1015.6 |
| 20260831033147 | 84 | 50 | 3.5 | 8.7 | 0.00 | 0.00 | 0.26 | 81 | 1015.9 |
| 20260831032646 | 84 | 96 | 5.2 | 6.1 | 0.00 | 0.00 | 0.26 | 81 | 1015.9 |
| 20260831032147 | 84 | 222 | 0.9 | 3.5 | 0.00 | 0.00 | 0.26 | 81 | 1015.9 |
| 20260831031648 | 84 | 85 | 2.6 | 6.1 | 0.00 | 0.00 | 0.26 | 81 | 1015.9 |
| 20260831030711 | 84 | 63 | 2.6 | 7.8 | 0.00 | 0.00 | 0.26 | 81 | 1015.2 |
| 20260831030146 | 84 | 68 | 3.5 | 6.1 | 0.00 | 0.00 | 0.26 | 81 | 1015.6 |
| 20260831025646 | 83 | 69 | 3.5 | 6.1 | 0.00 | 0.00 | 0.26 | 81 | 1015.6 |
| 20260831025147 | 84 | 57 | 1.7 | 4.3 | 0.00 | 0.00 | 0.26 | 81 | 1015.6 |
| 20260831024646 | 84 | 71 | 5.2 | 7.8 | 0.00 | 0.00 | 0.26 | 80 | 1015.2 |
| 20260831024148 | 84 | 108 | 4.3 | 5.2 | 0.00 | 0.00 | 0.26 | 80 | 1015.6 |
| 20260831023646 | 84 | 72 | 1.7 | 3.5 | 0.00 | 0.00 | 0.26 | 80 | 1015.6 |
| 20260831023147 | 84 | 61 | 1.7 | 4.3 | 0.00 | 0.00 | 0.26 | 79 | 1015.6 |
| 20260831022646 | 84 | 77 | 1.7 | 6.1 | 0.00 | 0.00 | 0.26 | 79 | 1015.2 |
| 20260831022148 | 84 | 82 | 4.3 | 7.8 | 0.00 | 0.00 | 0.26 | 78 | 1015.2 |
| 20260831021647 | 84 | 62 | 6.1 | 8.7 | 0.00 | 0.00 | 0.26 | 78 | 1015.2 |
| 20260831021146 | 84 | 84 | 6.1 | 11.3 | 0.00 | 0.00 | 0.26 | 77 | 1015.2 |
| 20260831020646 | 84 | 64 | 7.8 | 7.8 | 0.00 | 0.00 | 0.26 | 79 | 1015.2 |
| 20260831020147 | 84 | 86 | 6.1 | 7.0 | 0.00 | 0.00 | 0.26 | 80 | 1015.2 |
| 20260831015647 | 84 | 38 | 7.8 | 11.3 | 0.00 | 0.00 | 0.26 | 80 | 1014.9 |
| 20260831015148 | 84 | 60 | 4.3 | 5.2 | 0.00 | 0.00 | 0.26 | 79 | 1014.9 |
| 20260831014647 | 84 | 68 | 2.6 | 6.1 | 0.00 | 0.00 | 0.26 | 79 | 1014.9 |
| 20260831014147 | 84 | 96 | 6.1 | 7.8 | 0.00 | 0.00 | 0.26 | 78 | 1014.9 |
| 20260831013647 | 84 | 53 | 5.2 | 7.8 | 0.00 | 0.00 | 0.26 | 78 | 1014.9 |
| 20260831013146 | 84 | 71 | 5.2 | 11.3 | 0.00 | 0.00 | 0.26 | 78 | 1014.6 |
| 20260831012647 | 84 | 94 | 4.3 | 9.6 | 0.00 | 0.00 | 0.26 | 78 | 1014.6 |
| 20260831012146 | 84 | 69 | 5.2 | 7.8 | 0.00 | 0.00 | 0.26 | 77 | 1014.6 |
| 20260831011648 | 84 | 51 | 4.3 | 9.6 | 0.00 | 0.00 | 0.26 | 78 | 1014.6 |
| 20260831011146 | 85 | 67 | 4.3 | 9.6 | 0.00 | 0.00 | 0.26 | 77 | 1014.6 |
| 20260831010647 | 84 | 79 | 7.0 | 8.7 | 0.00 | 0.00 | 0.26 | 77 | 1014.6 |
| 20260831010147 | 85 | 68 | 7.0 | 8.7 | 0.00 | 0.00 | 0.26 | 76 | 1014.2 |
| 20260831005646 | 85 | 80 | 2.6 | 6.1 | 0.00 | 0.00 | 0.26 | 76 | 1014.2 |
| 20260831005149 | 85 | 70 | 7.0 | 8.7 | 0.00 | 0.00 | 0.26 | 76 | 1014.2 |
| 20260831004646 | 85 | 68 | 4.3 | 9.6 | 0.00 | 0.00 | 0.26 | 75 | 1014.2 |
| 20260831004146 | 85 | 34 | 2.6 | 6.1 | 0.00 | 0.00 | 0.26 | 75 | 1014.2 |
| 20260831003646 | 85 | 62 | 5.2 | 7.8 | 0.00 | 0.00 | 0.26 | 75 | 1014.2 |
| 20260831003146 | 85 | 58 | 5.2 | 6.1 | 0.00 | 0.00 | 0.26 | 76 | 1014.2 |
| 20260831002647 | 85 | 72 | 1.7 | 7.0 | 0.00 | 0.00 | 0.26 | 76 | 1014.2 |
| 20260831002146 | 85 | 73 | 3.5 | 9.6 | 0.00 | 0.00 | 0.26 | 76 | 1014.2 |
| 20260831001647 | 85 | 91 | 2.6 | 9.6 | 0.00 | 0.00 | 0.26 | 76 | 1014.2 |
| 20260831001146 | 85 | 60 | 6.1 | 9.6 | 0.00 | 0.00 | 0.26 | 75 | 1014.2 |
| 20260831000646 | 86 | 65 | 7.8 | 13.0 | 0.00 | 0.00 | 0.26 | 74 | 1014.2 |
| 20260831000146 | 86 | 63 | 8.7 | 12.2 | 0.00 | 0.00 | 0.26 | 72 | 1014.2 |
| 20260830235646 | 86 | 51 | 7.0 | 11.3 | 0.00 | 0.00 | 0.26 | 72 | 1014.2 |
| 20260830235146 | 86 | 49 | 7.0 | 12.2 | 0.00 | 0.00 | 0.26 | 73 | 1014.2 |
| 20260830234647 | 86 | 32 | 4.3 | 9.6 | 0.00 | 0.00 | 0.26 | 74 | 1014.2 |
| 20260830234147 | 86 | 57 | 7.8 | 11.3 | 0.00 | 0.00 | 0.26 | 74 | 1014.2 |
| 20260830233646 | 86 | 67 | 8.7 | 9.6 | 0.00 | 0.00 | 0.26 | 74 | 1014.2 |
| 20260830233148 | 87 | 73 | 4.3 | 8.7 | 0.00 | 0.00 | 0.26 | 74 | 1014.2 |
| 20260830232647 | 87 | 38 | 6.1 | 9.6 | 0.00 | 0.00 | 0.26 | 74 | 1014.2 |
| 20260830232146 | 87 | 45 | 5.2 | 8.7 | 0.00 | 0.00 | 0.26 | 73 | 1014.2 |
| 20260830231646 | 87 | 40 | 3.5 | 9.6 | 0.00 | 0.00 | 0.26 | 74 | 1014.2 |
| 20260830231146 | 87 | 47 | 1.7 | 7.8 | 0.00 | 0.00 | 0.26 | 73 | 1014.2 |
| 20260830230646 | 87 | 62 | 7.0 | 9.6 | 0.00 | 0.00 | 0.26 | 73 | 1014.2 |
| 20260830230146 | 87 | 69 | 9.6 | 13.0 | 0.00 | 0.00 | 0.26 | 73 | 1014.2 |
| 20260830225645 | 87 | 62 | 3.5 | 11.3 | 0.00 | 0.00 | 0.26 | 73 | 1014.2 |
| 20260830225146 | 87 | 22 | 1.7 | 5.2 | 0.00 | 0.00 | 0.26 | 73 | 1014.2 |
| 20260830224646 | 87 | 50 | 2.6 | 9.6 | 0.00 | 0.00 | 0.26 | 73 | 1014.2 |
| 20260830224146 | 87 | 82 | 5.2 | 7.0 | 0.00 | 0.00 | 0.26 | 73 | 1014.2 |
| 20260830223646 | 87 | 68 | 9.6 | 10.4 | 0.00 | 0.00 | 0.26 | 72 | 1014.2 |
| 20260830223146 | 87 | 40 | 4.3 | 8.7 | 0.00 | 0.00 | 0.26 | 71 | 1014.2 |
| 20260830222646 | 87 | 73 | 5.2 | 11.3 | 0.00 | 0.00 | 0.26 | 71 | 1014.2 |
| 20260830222146 | 87 | 66 | 7.8 | 8.7 | 0.00 | 0.00 | 0.26 | 70 | 1014.2 |
| 20260830221646 | 87 | 65 | 2.6 | 9.6 | 0.00 | 0.00 | 0.26 | 69 | 1014.6 |
| 20260830221147 | 87 | 50 | 7.0 | 9.6 | 0.00 | 0.00 | 0.26 | 69 | 1014.2 |
| 20260830220646 | 87 | 51 | 7.0 | 8.7 | 0.00 | 0.00 | 0.26 | 69 | 1014.6 |
| 20260830220146 | 87 | 88 | 6.1 | 10.4 | 0.00 | 0.00 | 0.26 | 69 | 1014.6 |
| 20260830215645 | 87 | 84 | 7.0 | 7.8 | 0.00 | 0.00 | 0.26 | 70 | 1014.6 |
| 20260830215146 | 87 | 69 | 7.0 | 11.3 | 0.00 | 0.00 | 0.26 | 69 | 1014.6 |
| 20260830214647 | 87 | 65 | 5.2 | 9.6 | 0.00 | 0.00 | 0.26 | 69 | 1014.2 |
| 20260830214147 | 87 | 53 | 5.2 | 11.3 | 0.00 | 0.00 | 0.26 | 68 | 1014.6 |
| 20260830213646 | 87 | 64 | 7.8 | 9.6 | 0.00 | 0.00 | 0.26 | 68 | 1014.6 |
| 20260830213148 | 88 | 59 | 9.6 | 9.6 | 0.00 | 0.00 | 0.26 | 66 | 1014.6 |
| 20260830212646 | 88 | 74 | 6.1 | 9.6 | 0.00 | 0.00 | 0.26 | 67 | 1014.6 |
| 20260830212147 | 88 | 84 | 2.6 | 9.6 | 0.00 | 0.00 | 0.26 | 68 | 1014.6 |
| 20260830211646 | 87 | 62 | 4.3 | 7.8 | 0.00 | 0.00 | 0.26 | 68 | 1014.6 |
| 20260830211146 | 87 | 64 | 7.8 | 11.3 | 0.00 | 0.00 | 0.26 | 70 | 1014.6 |
| 20260830210646 | 87 | 91 | 3.5 | 10.4 | 0.00 | 0.00 | 0.26 | 71 | 1014.6 |
| 20260830210148 | 88 | 52 | 4.3 | 8.7 | 0.00 | 0.00 | 0.26 | 70 | 1014.6 |
| 20260830205646 | 87 | 70 | 8.7 | 12.2 | 0.00 | 0.00 | 0.26 | 70 | 1014.6 |
| 20260830205146 | 88 | 70 | 6.1 | 12.2 | 0.00 | 0.00 | 0.26 | 69 | 1014.6 |
| 20260830204646 | 88 | 32 | 4.3 | 10.4 | 0.00 | 0.00 | 0.26 | 70 | 1014.9 |
| 20260830204146 | 87 | 85 | 2.6 | 9.6 | 0.00 | 0.00 | 0.26 | 71 | 1014.6 |
| 20260830203646 | 88 | 40 | 7.0 | 14.8 | 0.00 | 0.00 | 0.26 | 70 | 1014.9 |
| 20260830203146 | 89 | 58 | 2.6 | 7.8 | 0.00 | 0.00 | 0.26 | 67 | 1014.6 |
| 20260830202647 | 89 | 72 | 7.8 | 10.4 | 0.00 | 0.00 | 0.26 | 66 | 1014.6 |
| 20260830202146 | 88 | 63 | 5.2 | 10.4 | 0.00 | 0.00 | 0.26 | 67 | 1014.6 |
| 20260830201646 | 89 | 84 | 4.3 | 6.1 | 0.00 | 0.00 | 0.26 | 66 | 1014.9 |
| 20260830201147 | 88 | 130 | 1.7 | 8.7 | 0.00 | 0.00 | 0.26 | 66 | 1014.9 |
| 20260830200647 | 88 | 85 | 3.5 | 9.6 | 0.00 | 0.00 | 0.26 | 66 | 1015.2 |
| 20260830200147 | 88 | 60 | 7.0 | 13.0 | 0.00 | 0.00 | 0.26 | 66 | 1015.2 |
| 20260830195646 | 88 | 35 | 2.6 | 7.0 | 0.00 | 0.00 | 0.26 | 66 | 1015.2 |
| 20260830195147 | 88 | 114 | 5.2 | 7.8 | 0.00 | 0.00 | 0.26 | 66 | 1015.2 |
| 20260830194646 | 88 | 70 | 5.2 | 7.0 | 0.00 | 0.00 | 0.26 | 66 | 1015.2 |
| 20260830194146 | 89 | 121 | 3.5 | 6.1 | 0.00 | 0.00 | 0.26 | 66 | 1015.2 |
| 20260830193647 | 90 | 10 | 1.7 | 7.0 | 0.00 | 0.00 | 0.26 | 65 | 1015.6 |
| 20260830193148 | 91 | 139 | 5.2 | 9.6 | 0.00 | 0.00 | 0.26 | 63 | 1015.6 |
| 20260830192646 | 91 | 134 | 6.1 | 7.0 | 0.00 | 0.00 | 0.26 | 63 | 1015.6 |
| 20260830192146 | 90 | 64 | 4.3 | 7.0 | 0.00 | 0.00 | 0.26 | 62 | 1015.6 |
| 20260830191646 | 91 | 101 | 3.5 | 9.6 | 0.00 | 0.00 | 0.26 | 63 | 1015.6 |
| 20260830191146 | 90 | 80 | 4.3 | 11.3 | 0.00 | 0.00 | 0.26 | 64 | 1015.6 |
| 20260830190646 | 90 | 52 | 9.6 | 12.2 | 0.00 | 0.00 | 0.26 | 63 | 1015.9 |
| 20260830190147 | 90 | 54 | 6.1 | 11.3 | 0.00 | 0.00 | 0.26 | 62 | 1015.6 |
| 20260830185647 | 90 | 26 | 2.6 | 9.6 | 0.00 | 0.00 | 0.26 | 63 | 1015.9 |
| 20260830185146 | 89 | 56 | 1.7 | 11.3 | 0.00 | 0.00 | 0.26 | 64 | 1015.9 |
| 20260830184646 | 89 | 46 | 7.8 | 13.0 | 0.00 | 0.00 | 0.26 | 64 | 1015.9 |
| 20260830184146 | 89 | 52 | 7.8 | 11.3 | 0.00 | 0.00 | 0.26 | 64 | 1015.9 |
| 20260830183646 | 89 | 50 | 4.3 | 13.0 | 0.00 | 0.00 | 0.26 | 64 | 1015.9 |
| 20260830183146 | 89 | 352 | 2.6 | 13.9 | 0.00 | 0.00 | 0.26 | 64 | 1015.9 |
| 20260830182646 | 89 | 61 | 7.8 | 14.8 | 0.00 | 0.00 | 0.26 | 66 | 1015.9 |
| 20260830182147 | 90 | 60 | 5.2 | 11.3 | 0.00 | 0.00 | 0.26 | 67 | 1015.9 |
| 20260830181646 | 89 | 30 | 6.1 | 8.7 | 0.00 | 0.00 | 0.26 | 69 | 1016.3 |
| 20260830181146 | 89 | 63 | 7.0 | 13.0 | 0.00 | 0.00 | 0.26 | 69 | 1016.3 |
| 20260830180647 | 88 | 50 | 5.2 | 12.2 | 0.00 | 0.00 | 0.26 | 72 | 1016.3 |
| 20260830180146 | 88 | 64 | 9.6 | 13.9 | 0.00 | 0.00 | 0.26 | 71 | 1016.3 |
| 20260830175646 | 88 | 71 | 11.3 | 11.3 | 0.00 | 0.00 | 0.26 | 71 | 1016.6 |
| 20260830175147 | 88 | 72 | 2.6 | 11.3 | 0.00 | 0.00 | 0.26 | 69 | 1016.6 |
| 20260830174646 | 88 | 358 | 1.7 | 13.0 | 0.00 | 0.00 | 0.26 | 67 | 1016.6 |
| 20260830174146 | 88 | 59 | 6.1 | 9.6 | 0.00 | 0.00 | 0.26 | 67 | 1016.6 |
| 20260830173647 | 88 | 29 | 3.5 | 13.9 | 0.00 | 0.00 | 0.26 | 67 | 1016.6 |
| 20260830173146 | 88 | 44 | 6.1 | 15.6 | 0.00 | 0.00 | 0.26 | 66 | 1016.9 |